Overview Statistics Trail Chart Weather Telemetry Raw packets
 

This is the latest recevied weather packets stored in our database for station/object EA1HEH-13. If no packets are shown the sender has not sent any weather packets the latest 10 day(s).

<< 6 7 8 9 10 11 12 >>
Time Temp. Humidity Pressure Rain* Wind** Luminosity Snow
1788511488 22.78° C 41% 943.7 hPa - - - -
1788510888 22.78° C 43% 943.6 hPa - - - -
1788510289 22.22° C 43% 943.6 hPa - - - -
1788509688 22.22° C 43% 943.5 hPa - - - -
1788509088 21.67° C 44% 943.4 hPa - - - -
1788508495 21.67° C 44% 943.4 hPa - - - -
1788507888 21.67° C 44% 943.4 hPa - - - -
1788507288 21.67° C 44% 943.2 hPa - - - -
1788506688 21.11° C 44% 943.2 hPa - - - -
1788506088 21.11° C 43% 943.1 hPa - - - -
1788505488 21.67° C 35% 943.2 hPa - - - -
1788504888 22.78° C 22% 943.4 hPa - - - -
1788504288 22.78° C 22% 943.3 hPa - - - -
1788503688 22.78° C 21% 943.2 hPa - - - -
1788503088 22.78° C 21% 943.2 hPa - - - -
1788502488 22.78° C 21% 943.1 hPa - - - -
1788501888 22.78° C 21% 943.1 hPa - - - -
1788501288 22.78° C 21% 943.1 hPa - - - -
1788500688 22.78° C 21% 943.1 hPa - - - -
1788500088 22.78° C 21% 943.1 hPa - - - -
1788499488 22.78° C 21% 943.1 hPa - - - -
1788498888 23.33° C 21% 943 hPa - - - -
1788498306 23.33° C 21% 943 hPa - - - -
1788497688 23.33° C 20% 943 hPa - - - -
1788497088 23.33° C 20% 943.1 hPa - - - -

* Rain since midnight (hover to see other rain measurements)
** Current wind speed in m/s (hover to see current wind gust speed)